Location: Eymir
(36.7333°N, 29.7833°E)
Time: 18:24:05
(UTC+00:00)

ARIANE 6 FM1 Upper Stage - Pass Details

Date: 14 January 2026
Orbit: 522 x 608 km, 62.0° (Epoch: 17 February)

Event Time Altitude Azimuth Distance (km) Brightness Sun altitude
Exits shadow 03:37:35 24° 346° (NNW) 1,115 3.9 -18.8°
Maximum altitude 03:39:43 53° 54° (NE) 655 3.2 -18.4°
Drops below altitude 10° 03:43:40 10° 132° (SE) 1,794 6.2 -17.6°
Sets 03:45:55 0° 137° (SE) 2,696 7.1 -17.2°
